[Iaude] MPEC T148: 2016 TM56 [a=1.11,e=0.13,i=2.1,H=26.2]

mpec at si.edu mpec at si.edu
Fri Oct 14 06:25:41 EDT 2016


M.P.E.C. 2016-T148                               Issued 2016 Oct. 14, 10:21 UT
 
     The Minor Planet Electronic Circulars contain information on unusual
         minor planets and routine data on comets.  They are published
    on behalf of Division F of the International Astronomical Union by the
          Minor Planet Center, Smithsonian Astrophysical Observatory,
                          Cambridge, MA 02138, U.S.A.

             Prepared using the Tamkin Foundation Computer Network

                              MPC at CFA.HARVARD.EDU
            URL http://www.minorplanetcenter.net/    ISSN 1523-6714


                                   2016 TM56
 
Observations:
     K16T56M* C2016 10 12.08158 18 15 06.69 +47 32 47.6          19.4 VqET148G96
     K16T56M  C2016 10 12.09161 18 15 30.52 +47 35 39.9          19.1 VqET148G96
     K16T56M  C2016 10 12.09670 18 15 42.64 +47 37 06.6          19.1 VqET148G96
     K16T56M  C2016 10 12.12831 18 16 59.10 +47 46 09.9          19.6 RoET148926
     K16T56M  C2016 10 12.12971 18 17 02.55 +47 46 32.5          19.7 RoET148926
     K16T56M  C2016 10 12.13111 18 17 06.00 +47 46 55.8          19.4 RoET148926
     K16T56M  C2016 10 12.13251 18 17 09.48 +47 47 19.0          19.6 RoET148926
     K16T56M  C2016 10 12.13390 18 17 12.97 +47 47 41.9          19.5 RoET148926
     K16T56M  C2016 10 12.13438 18 17 14.50 +47 47 38.3          19.3 VqET148G96
     K16T56M  C2016 10 12.13483 18 17 15.65 +47 47 44.8          19.4 VqET148G96
     K16T56M  C2016 10 12.13524 18 17 16.65 +47 47 51.5          19.4 VqET148G96
     K16T56M  C2016 10 12.13530 18 17 16.43 +47 48 05.1          19.6 RoET148926
     K16T56M  C2016 10 12.13565 18 17 17.71 +47 47 58.2          19.4 VqET148G96
     K16T56M  C2016 10 12.13671 18 17 19.91 +47 48 27.9          19.5 RoET148926
     K16T56M  C2016 10 12.13810 18 17 23.36 +47 48 50.7          19.2 RoET148926
     K16T56M  C2016 10 12.13950 18 17 26.88 +47 49 13.8          19.5 RoET148926
     K16T56M KC2016 10 12.92146018 59 30.34 +51 33 58.1          19.3 RqET148J95
     K16T56M KC2016 10 12.92382718 59 38.78 +51 34 31.1          19.1 RqET148J95
     K16T56M KC2016 10 12.93376219 00 14.38 +51 36 50.0          19.1 RqET148J95
     K16T56M  C2016 10 13.07980 19 10 07.85 +52 24 39.6          18.9 VqET148G96
     K16T56M  C2016 10 13.08022 19 10 09.33 +52 24 45.9          19.7 VqET148G96
     K16T56M  C2016 10 13.08066 19 10 10.71 +52 24 52.1          19.4 VqET148G96
     K16T56M  C2016 10 13.08108 19 10 12.23 +52 24 58.6          19.9 VqET148G96
     K16T56M KC2016 10 13.12065 19 12 30.52 +52 34 31.6          18.9 RoET148291
     K16T56M KC2016 10 13.12203 19 12 35.44 +52 34 50.8          18.4 RoET148291
     K16T56M KC2016 10 13.12362 19 12 41.06 +52 35 12.5          18.4 RoET148291
     K16T56M  C2016 10 14.11516 20 28 06.76 +55 38 03.3          18.3 RoET148926
     K16T56M  C2016 10 14.11610 20 28 10.91 +55 38 08.3          18.1 RoET148926
     K16T56M  C2016 10 14.11701 20 28 15.05 +55 38 13.0          18.3 RoET148926
     K16T56M  C2016 10 14.12733 20 29 01.39 +55 39 05.0          18.2 RoET148926
     K16T56M  C2016 10 14.12824 20 29 05.51 +55 39 09.2          18.2 RoET148926
     K16T56M  C2016 10 14.12917 20 29 09.71 +55 39 14.0          18.3 RoET148926
     K16T56M  C2016 10 14.13009 20 29 13.88 +55 39 18.3          18.2 RoET148926
     K16T56M  C2016 10 14.13102 20 29 18.04 +55 39 22.6          18.3 RoET148926
     K16T56M  C2016 10 14.13194 20 29 22.17 +55 39 26.9          18.3 RoET148926
 
Observer details:
291 LPL/Spacewatch II.  Observer R. S. McMillan.  1.8-m f/2.7 reflector + CCD.
926 Tenagra II Observatory.  Observers M. Schwartz, P. R. Holvorcem.  Measurer
    M. Schwartz.  0.81-m f/7 Ritchey-Chretien + CCD.
G96 Mt. Lemmon Survey.  Observer R. G. Matheny.  Measurers E. J. Christensen,
    D. C. Fuls, A. R. Gibbs, A. D. Grauer, J. A. Johnson, R. A. Kowalski,
    S. M. Larson, G. J. Leonard, R. G. Matheny, R. L. Seaman, F. C. Shelly.
    1.5-m reflector + 10K CCD.
J95 Great Shefford.  Observer P. Birtwhistle.  0.40-m f/6.0 Schmidt-Cassegrain
    + CCD.
 
Orbital elements:
2016 TM56                                                Earth MOID = 0.0095 AU
Epoch 2016 July 31.0 TT = JDT 2457600.5                 MPC
M 329.93856              (2000.0)            P               Q
n   0.83716945     Peri.  122.97013     +0.93143078     +0.36328429
a   1.1149630      Node   215.74106     -0.34495694     +0.86255998
e   0.1299230      Incl.    2.10706     -0.11593714     +0.35215735
P   1.18           H   26.2           G   0.15           U   5
Residuals in seconds of arc
161012 G96  0.0   0.5+    161012 G96  0.2+  0.3-    161013 291  0.0   0.3+
161012 G96  0.3+  0.0     161012 926  0.0   0.1-    161013 291  0.2+  0.2+
161012 G96  0.1-  0.3-    161012 926  0.1-  0.0     161014 926  0.3+  0.0
161012 926  0.0   0.1+    161012 926  0.1+  0.2+    161014 926  0.3-  0.0
161012 926  0.1-  0.4-    161012 J95  0.0   0.0     161014 926  0.2+  0.0
161012 926  0.2-  0.2-    161012 J95  0.0   0.1-    161014 926  0.3-  0.0
161012 926  0.1-  0.0     161012 J95  0.0   0.2+    161014 926  0.1-  0.2-
161012 926  0.4+  0.0     161013 G96  0.4+  0.2-    161014 926  0.0   0.1+
161012 G96  0.3-  0.6+    161013 G96  0.7+  0.1-    161014 926  0.3+  0.0
161012 G96  0.0   0.3-    161013 G96  0.5-  0.4-    161014 926  0.0   0.1-
161012 G96  0.2-  0.3-    161013 G96  0.2+  0.1-    161014 926  0.1-  0.1-
161012 926  0.2+  0.2+    161013 291  0.7-  0.0

Ephemeris:
2016 TM56                a,e,i = 1.11, 0.13, 2                   q = 0.9701
Date    TT    R. A. (2000) Decl.     Delta      r     Elong.  Phase     V
2016 09 14    15 12 57.9 +07 23 17   0.06342 0.9718    56.0   120.9    25.1
...
2016 09 29    15 43 10.5 +14 50 07   0.03336 0.9818    52.6   125.8    24.1
...
2016 10 07    16 25 12.8 +27 05 48   0.01851 0.9906    61.1   118.0    22.2
...
2016 10 13    19 05 14.2 +51 58 56   0.01037 0.9986    94.9    84.5    19.2
2016 10 14    20 18 39.3 +55 19 37   0.0098471.0001   105.4    74.0    18.8
2016 10 15    21 44 11.4 +55 28 50   0.0097341.0015   116.8    62.7    18.4
...
2016 10 21    01 41 57.9 +27 25 31   0.01606 1.0108   163.3    16.5    18.1
...
2016 10 29    02 29 33.3 +11 58 03   0.03122 1.0244   175.9     4.0    19.1
...
2016 11 13    02 48 41.2 +05 02 37   0.06554 1.0532   165.7    13.4    21.2

A. U. Tomatic                (C) Copyright 2016 MPC           M.P.E.C. 2016-T148




More information about the Iaude mailing list